Bonifay, FL

11:18 PM CDT on September 30, 2016 (GMT -0500)
Chipley

Weather History for KVSH - February, 2013

Change the Weather History Date:

Friday, February 8, 2013

  Actual Average (KMAI) Record (KMAI)
Temperature  
Mean Temperature 62 °F 53 °F  
Max Temperature 68 °F 65 °F 80 °F (1999)
Min Temperature 57 °F 42 °F 28 °F (2004)
Degree Days  
Heating Degree Days 2    
Month to date heating degree days  
Since 1 July heating degree days  
Cooling Degree Days 0    
Month to date cooling degree days  
Year to date cooling degree days  
Growing Degree Days 12 (Base 50)    
Moisture  
Dew Point 56 °F    
Average Humidity 78    
Maximum Humidity 88    
Minimum Humidity 68    
Precipitation  
Precipitation 0.00 in 0.18 in 0.16 in (2014)
Month to date precipitation 1.35  
Year to date precipitation 6.39  
Sea Level Pressure  
Sea Level Pressure 30.08 in    
Wind  
Wind Speed 2 mph (NNW)    
Max Wind Speed 10 mph    
Max Gust Speed 17 mph    
Visibility 7 miles    
Events      
T = Trace of Precipitation, MM = Missing Value Source: NWS Daily Summary

Daily Weather History Graph

Daily Weather History Graph

Search for Another Location

Airport or City:

Trip Planner

Search our weather history database for the weather conditions in past years. The results will help you decide how hot, cold, wet, or windy it might be!

Date:

Astronomy

Feb. 08, 2013 Rise Set
Actual Time 6:28 AM CST 5:24 PM CST
Civil Twilight 6:03 AM CST 5:49 PM CST
Nautical Twilight 5:35 AM CST 6:18 PM CST
Astronomical Twilight 5:07 AM CST 6:46 PM CST
Moon 4:53 AM CST (2/8) 3:59 PM CST (2/8)
Length of Visible Light 11h 45m
Length of Day
10h 55m
Waning Crescent, 3% of the Moon is Illuminated
Feb 8
Waning Crescent
Feb 10
New
Feb 17
First Quarter
Feb 25
Full
Mar 4
Last Quarter

Hourly Weather History & Observations

Time (CST) Temp. Dew Point Humidity Pressure Visibility Wind Dir Wind Speed Gust Speed Precip Events Conditions
12:15 AM 60.8 °F 55.4 °F 82% 29.98 in 5.0 mi Calm Calm - N/A   Clear
12:55 AM 60.8 °F 55.4 °F 82% 29.98 in 5.0 mi Calm Calm - N/A   Clear
1:15 AM 60.8 °F 55.4 °F 82% 29.98 in 5.0 mi Calm Calm - N/A   Clear
1:35 AM 60.8 °F 55.4 °F 82% 29.98 in 5.0 mi Calm Calm - N/A   Clear
1:55 AM 60.8 °F 55.4 °F 82% 29.98 in 5.0 mi Calm Calm - N/A   Clear
2:15 AM 60.8 °F 55.4 °F 82% 29.98 in 5.0 mi Calm Calm - N/A   Clear
2:35 AM 60.8 °F 55.4 °F 82% 29.98 in 5.0 mi Calm Calm - N/A   Clear
2:55 AM 60.8 °F 55.4 °F 82% 29.99 in 5.0 mi Calm Calm - N/A   Clear
3:35 AM 60.8 °F 55.4 °F 82% 30.00 in 5.0 mi NNW 3.5 mph - N/A   Clear
3:55 AM 60.8 °F 55.4 °F 82% 30.00 in 5.0 mi Calm Calm - N/A   Clear
4:15 AM 60.8 °F 55.4 °F 82% 30.01 in 5.0 mi Calm Calm - N/A   Clear
4:35 AM 59.0 °F 55.4 °F 88% 30.01 in 4.0 mi Calm Calm - N/A   Clear
5:15 AM 59.0 °F 55.4 °F 88% 30.01 in 4.0 mi Calm Calm - N/A   Scattered Clouds
5:35 AM 59.0 °F 55.4 °F 88% 30.01 in 4.0 mi Calm Calm - N/A   Mostly Cloudy
5:55 AM 59.0 °F 55.4 °F 88% 30.01 in 5.0 mi Calm Calm - N/A   Overcast
6:15 AM 59.0 °F 55.4 °F 88% 30.03 in 5.0 mi Calm Calm - N/A   Mostly Cloudy
6:35 AM 59.0 °F 55.4 °F 88% 30.03 in 5.0 mi Calm Calm - N/A   Clear
6:55 AM 60.8 °F 55.4 °F 82% 30.03 in 4.0 mi Calm Calm - N/A   Clear
7:15 AM 60.8 °F 55.4 °F 82% 30.04 in 4.0 mi Calm Calm - N/A   Clear
7:35 AM 60.8 °F 55.4 °F 82% 30.04 in 4.0 mi SSW 3.5 mph - N/A   Clear
7:55 AM 60.8 °F 55.4 °F 82% 30.06 in 3.0 mi Calm Calm - N/A   Scattered Clouds
8:15 AM 60.8 °F 57.2 °F 88% 30.07 in 4.0 mi Calm Calm - N/A   Overcast
8:35 AM 62.6 °F 57.2 °F 82% 30.08 in 5.0 mi Calm Calm - N/A   Overcast
8:55 AM 62.6 °F 57.2 °F 82% 30.09 in 5.0 mi WSW 3.5 mph - N/A   Overcast
9:15 AM 62.6 °F 57.2 °F 82% 30.10 in 4.0 mi Calm Calm - N/A   Overcast
9:35 AM 64.4 °F 57.2 °F 77% 30.10 in 4.0 mi WSW 3.5 mph - N/A   Overcast
9:55 AM 64.4 °F 57.2 °F 77% 30.10 in 5.0 mi WSW 4.6 mph - N/A   Overcast
10:15 AM 64.4 °F 59.0 °F 83% 30.11 in 5.0 mi West 4.6 mph - N/A   Overcast
10:35 AM 66.2 °F 59.0 °F 78% 30.11 in 5.0 mi WNW 5.8 mph - N/A   Overcast
10:55 AM 66.2 °F 59.0 °F 78% 30.11 in 5.0 mi NW 6.9 mph - N/A   Overcast
11:15 AM 66.2 °F 59.0 °F 78% 30.11 in 4.0 mi NW 5.8 mph - N/A   Overcast
11:35 AM 66.2 °F 59.0 °F 78% 30.11 in 5.0 mi WNW 4.6 mph - N/A   Overcast
11:55 AM 64.4 °F 57.2 °F 77% 30.11 in 5.0 mi NW 6.9 mph - N/A   Overcast
12:15 PM 64.4 °F 57.2 °F 77% 30.10 in 4.0 mi WNW 4.6 mph - N/A   Overcast
12:35 PM 64.4 °F 57.2 °F 77% 30.10 in 5.0 mi North 5.8 mph - N/A   Overcast
12:55 PM 64.4 °F 57.2 °F 77% 30.10 in 5.0 mi NW 5.8 mph - N/A   Overcast
1:15 PM 62.6 °F 57.2 °F 82% 30.09 in 5.0 mi WNW 5.8 mph - N/A   Overcast
1:35 PM 62.6 °F 57.2 °F 82% 30.09 in 5.0 mi NW 8.1 mph - N/A   Overcast
1:55 PM 62.6 °F 57.2 °F 82% 30.09 in 5.0 mi NW 6.9 mph - N/A   Overcast
2:15 PM 64.4 °F 57.2 °F 77% 30.09 in 5.0 mi NW 4.6 mph - N/A   Overcast
2:35 PM 66.2 °F 57.2 °F 73% 30.08 in 6.0 mi NW 5.8 mph - N/A   Overcast
2:55 PM 66.2 °F 57.2 °F 73% 30.08 in 7.0 mi North 3.5 mph - N/A   Mostly Cloudy
3:15 PM 68.0 °F 57.2 °F 68% 30.07 in 9.0 mi NNW 5.8 mph - N/A   Scattered Clouds
3:35 PM 68.0 °F 57.2 °F 68% 30.07 in 9.0 mi NE 5.8 mph - N/A   Partly Cloudy
3:55 PM 68.0 °F 57.2 °F 68% 30.07 in 9.0 mi NNW 3.5 mph - N/A   Clear
4:15 PM 68.0 °F 57.2 °F 68% 30.07 in 9.0 mi NNE 4.6 mph - N/A   Clear
4:35 PM 68.0 °F 57.2 °F 68% 30.07 in 10.0 mi Calm Calm - N/A   Clear
4:55 PM 68.0 °F 57.2 °F 68% 30.07 in 10.0 mi NW 3.5 mph - N/A   Clear
5:35 PM 66.2 °F 55.4 °F 68% 30.08 in 10.0 mi Calm Calm - N/A   Clear
5:55 PM 66.2 °F 55.4 °F 68% 30.09 in 9.0 mi Calm Calm - N/A   Clear
6:15 PM 66.2 °F 55.4 °F 68% 30.09 in 10.0 mi NNW 3.5 mph - N/A   Clear
6:35 PM 66.2 °F 55.4 °F 68% 30.10 in 10.0 mi North 5.8 mph - N/A   Clear
6:55 PM 66.2 °F 55.4 °F 68% 30.11 in 10.0 mi NNE 5.8 mph - N/A   Mostly Cloudy
7:15 PM 64.4 °F 55.4 °F 73% 30.12 in 10.0 mi North 8.1 mph - N/A   Mostly Cloudy
7:35 PM 62.6 °F 53.6 °F 72% 30.13 in 10.0 mi NNE 6.9 mph - N/A   Mostly Cloudy
7:55 PM 62.6 °F 53.6 °F 72% 30.14 in 10.0 mi North 9.2 mph - N/A   Partly Cloudy
8:15 PM 60.8 °F 53.6 °F 77% 30.14 in 10.0 mi NNE 8.1 mph 17.3 mph N/A   Clear
8:35 PM 60.8 °F 51.8 °F 72% 30.15 in 10.0 mi North 9.2 mph - N/A   Clear
8:55 PM 60.8 °F 51.8 °F 72% 30.16 in 10.0 mi North 6.9 mph - N/A   Partly Cloudy
9:15 PM 59.0 °F 51.8 °F 77% 30.16 in 10.0 mi NNE 9.2 mph - N/A   Clear
9:35 PM 59.0 °F 51.8 °F 77% 30.17 in 10.0 mi NNE 6.9 mph - N/A   Partly Cloudy
9:55 PM 59.0 °F 51.8 °F 77% 30.16 in 10.0 mi NNE 10.4 mph - N/A   Scattered Clouds
10:15 PM 57.2 °F 51.8 °F 82% 30.16 in 10.0 mi NNE 8.1 mph - N/A   Partly Cloudy
10:35 PM 57.2 °F 51.8 °F 82% 30.16 in 10.0 mi NNE 9.2 mph - N/A   Scattered Clouds
10:55 PM 57.2 °F 51.8 °F 82% 30.17 in 10.0 mi NNE 8.1 mph - N/A   Scattered Clouds
11:15 PM 57.2 °F 51.8 °F 82% 30.17 in 10.0 mi NNE 9.2 mph - N/A   Partly Cloudy
11:35 PM 57.2 °F 51.8 °F 82% 30.16 in 10.0 mi NNE 8.1 mph - N/A   Unknown
11:55 PM 57.2 °F 51.8 °F 82% 30.16 in 10.0 mi NNE 5.8 mph - N/A   Unknown